Montgomery, NY

4:52 PM EST on December 06, 2019 (GMT -0500)
Orange County

Weather History for KMGJ - November, 2019

Change the Weather History Date:

Tuesday, November 12, 2019

  Actual Average (WUND) Record (WUND)
Temperature  
Mean Temperature 29 °F -  
Max Temperature 37 °F - - (-1)
Min Temperature 19 °F - - (-1)
Degree Days  
Heating Degree Days 36    
Moisture  
Dew Point 20 °F    
Average Humidity 68    
Maximum Humidity 96    
Minimum Humidity 43    
Precipitation  
Precipitation 0.04 in - - ()
Sea Level Pressure  
Sea Level Pressure 29.90 in    
Wind  
Wind Speed 8 mph (NW)    
Max Wind Speed 18 mph    
Max Gust Speed 32 mph    
Visibility 10 miles    
Events Rain    
Averages and records for this station are not official NWS values.
T = Trace of Precipitation, MM = Missing Value Source: NWS Daily Summary

Daily Weather History Graph

Daily Weather History Graph

Search for Another Location

Airport or City:

Astronomy

Nov. 12, 2019 Rise Set
Actual Time 6:41 AM EST 4:40 PM EST
Civil Twilight 6:12 AM EST 5:09 PM EST
Nautical Twilight 5:38 AM EST 5:42 PM EST
Astronomical Twilight 5:06 AM EST 6:15 PM EST
Moon 5:06 PM EST (11/12) 6:30 AM EST (11/12)
Length of Visible Light 10h 57m
Length of Day
9h 58m
Full, 100% of the Moon is Illuminated
Nov 12
Full
Nov 19
Last Quarter
Nov 26
New
Dec 4
First Quarter
Dec 12
Full

Hourly Weather History & Observations

Time (EST) Temp. Windchill Dew Point Humidity Pressure Visibility Wind Dir Wind Speed Gust Speed Precip Events Conditions
12:54 AM 33.1 °F 27.7 °F 28.0 °F 82% 29.78 in 10.0 mi NNE 5.8 mph - N/A   Clear
1:54 AM 32.0 °F 28.7 °F 28.0 °F 85% 29.75 in 10.0 mi North 3.5 mph - N/A   Partly Cloudy
2:07 AM 33.1 °F 30.0 °F 28.0 °F 82% 29.74 in 10.0 mi NNW 3.5 mph - N/A   Mostly Cloudy
2:54 AM 33.1 °F 27.7 °F 28.0 °F 82% 29.72 in 10.0 mi North 5.8 mph - N/A   Clear
3:54 AM 33.1 °F 28.7 °F 28.9 °F 85% 29.70 in 10.0 mi NNE 4.6 mph - N/A   Overcast
4:54 AM 34.0 °F - 28.9 °F 82% 29.71 in 10.0 mi Calm Calm - N/A   Overcast
6:18 AM 34.0 °F 29.8 °F 32.0 °F 92% 29.72 in 10.0 mi SSE 4.6 mph - 0.00 in Rain Light Rain
6:27 AM 34.0 °F 29.8 °F 33.1 °F 96% 29.73 in 10.0 mi South 4.6 mph - 0.00 in Rain Light Rain
6:54 AM 37.0 °F 29.3 °F 33.1 °F 86% 29.75 in 10.0 mi West 11.5 mph 20.7 mph 0.01 in Rain Light Rain
7:54 AM 36.0 °F 28.5 °F 32.0 °F 86% 29.81 in 10.0 mi West 10.4 mph 17.3 mph 0.02 in Rain Light Rain
8:54 AM 35.1 °F 29.3 °F 30.9 °F 85% 29.83 in 10.0 mi WNW 6.9 mph - 0.01 in   Overcast
9:54 AM 35.1 °F 25.9 °F 27.0 °F 72% 29.83 in 10.0 mi NW 13.8 mph 21.9 mph N/A   Overcast
10:54 AM 32.0 °F 21.6 °F 23.0 °F 69% 29.87 in 10.0 mi NW 15.0 mph 31.1 mph N/A   Overcast
11:54 AM 30.9 °F 20.2 °F 19.9 °F 64% 29.89 in 10.0 mi NW 15.0 mph 28.8 mph N/A   Overcast
12:54 PM 28.9 °F 16.5 °F 17.1 °F 61% 29.93 in 10.0 mi WNW 18.4 mph 29.9 mph N/A   Scattered Clouds
1:54 PM 30.0 °F 19.5 °F 17.1 °F 59% 29.94 in 10.0 mi NW 13.8 mph 19.6 mph N/A   Clear
2:54 PM 30.0 °F 18.7 °F 16.0 °F 56% 29.96 in 10.0 mi NNW 16.1 mph 24.2 mph N/A   Clear
3:54 PM 30.0 °F 18.7 °F 12.9 °F 49% 29.98 in 10.0 mi NW 16.1 mph 32.2 mph N/A   Clear
4:54 PM 28.9 °F 19.8 °F 12.9 °F 51% 30.01 in 10.0 mi NW 10.4 mph 20.7 mph N/A   Clear
5:54 PM 27.0 °F 14.7 °F 10.0 °F 49% 30.05 in 10.0 mi NNW 16.1 mph 32.2 mph N/A   Partly Cloudy
6:54 PM 25.0 °F 12.2 °F 5.0 °F 43% 30.09 in 10.0 mi NNW 16.1 mph 32.2 mph N/A   Clear
7:54 PM 24.1 °F 13.1 °F 7.0 °F 48% 30.11 in 10.0 mi NW 11.5 mph - N/A   Clear
8:54 PM 21.9 °F 9.8 °F 3.9 °F 46% 30.13 in 10.0 mi NW 12.7 mph 19.6 mph N/A   Clear
9:54 PM 21.0 °F 12.4 °F 6.1 °F 53% 30.14 in 10.0 mi NW 6.9 mph - N/A   Clear
10:54 PM 21.0 °F 9.3 °F 7.0 °F 55% 30.15 in 10.0 mi WNW 11.5 mph 20.7 mph N/A   Clear
11:54 PM 19.9 °F 10.1 °F 8.1 °F 60% 30.16 in 10.0 mi WNW 8.1 mph 17.3 mph N/A   Clear